| time (UTC) | temp F | wind direction | speed MPH | gust MPH | rain 1hr in | rain 24hr in | rain mn in | humidity % | barometer mb |
| 20260509185020 | 74 | 185 | 3.0 | 8.0 | 0.00 | 0.12 | 0.12 | 58 | 1003.8 |
| 20260509184043 | 74 | 320 | 3.0 | 5.0 | 0.00 | 0.12 | 0.12 | 60 | 1003.9 |
| 20260509183107 | 73 | 198 | 3.0 | 7.0 | 0.00 | 0.12 | 0.12 | 62 | 1003.8 |
| 20260509182028 | 73 | 95 | 2.0 | 4.0 | 0.00 | 0.12 | 0.12 | 61 | 1004.1 |
| 20260509181033 | 73 | 269 | 2.0 | 4.0 | 0.00 | 0.12 | 0.12 | 63 | 1004.0 |
| 20260509180017 | 70 | 177 | 3.0 | 6.0 | 0.00 | 0.12 | 0.12 | 64 | 1003.8 |
| 20260509175020 | 71 | 159 | 2.0 | 6.0 | 0.00 | 0.12 | 0.12 | 65 | 1003.7 |
| 20260509174023 | 71 | 243 | 1.0 | 3.0 | 0.00 | 0.12 | 0.12 | 64 | 1004.0 |
| 20260509173046 | 70 | 215 | 2.0 | 4.0 | 0.00 | 0.12 | 0.12 | 65 | 1004.1 |
| 20260509172023 | 70 | 150 | 3.0 | 5.0 | 0.00 | 0.12 | 0.12 | 63 | 1004.1 |
| 20260509171020 | 70 | 162 | 2.0 | 4.0 | 0.00 | 0.12 | 0.12 | 66 | 1004.1 |
| 20260509170018 | 72 | 207 | 3.0 | 6.0 | 0.00 | 0.12 | 0.12 | 64 | 1004.1 |
| 20260509165015 | 71 | 216 | 2.0 | 5.0 | 0.00 | 0.12 | 0.12 | 66 | 1004.2 |
| 20260509164024 | 70 | 215 | 2.0 | 5.0 | 0.00 | 0.12 | 0.12 | 67 | 1004.3 |
| 20260509163028 | 67 | 196 | 2.0 | 5.0 | 0.00 | 0.12 | 0.12 | 70 | 1004.3 |
| 20260509162036 | 67 | 230 | 3.0 | 5.0 | 0.00 | 0.12 | 0.12 | 69 | 1004.1 |
| 20260509161035 | 69 | 131 | 1.0 | 3.0 | 0.00 | 0.12 | 0.12 | 70 | 1004.1 |
| 20260509160018 | 70 | 194 | 1.0 | 3.0 | 0.00 | 0.12 | 0.12 | 71 | 1004.0 |
| 20260509155021 | 67 | 182 | 2.0 | 4.0 | 0.00 | 0.12 | 0.12 | 75 | 1004.0 |
| 20260509154024 | 66 | 22 | 0.0 | 1.0 | 0.00 | 0.12 | 0.12 | 80 | 1004.0 |
| 20260509153027 | 67 | 196 | 1.0 | 3.0 | 0.00 | 0.12 | 0.12 | 78 | 1003.9 |
| 20260509152030 | 66 | 209 | 2.0 | 4.0 | 0.00 | 0.12 | 0.12 | 80 | 1003.9 |
| 20260509151037 | 66 | 69 | 1.0 | 3.0 | 0.00 | 0.12 | 0.12 | 79 | 1003.8 |
| 20260509150038 | 65 | 52 | 1.0 | 4.0 | 0.00 | 0.12 | 0.12 | 81 | 1003.7 |
| 20260509145042 | 66 | 2 | 1.0 | 3.0 | 0.00 | 0.12 | 0.12 | 82 | 1003.6 |
| 20260509144045 | 65 | 247 | 0.0 | 1.0 | 0.00 | 0.12 | 0.12 | 84 | 1003.6 |
| 20260509143028 | 64 | 80 | 1.0 | 5.0 | 0.00 | 0.12 | 0.12 | 85 | 1003.6 |
| 20260509142032 | 65 | 247 | 0.0 | 2.0 | 0.00 | 0.12 | 0.12 | 88 | 1003.6 |
| 20260509141036 | 63 | 124 | 0.0 | 4.0 | 0.00 | 0.12 | 0.12 | 90 | 1003.6 |
| 20260509140019 | 62 | 0.0 | 0.0 | 0.00 | 0.12 | 0.12 | 93 | 1003.6 | |
| 20260509135043 | 60 | 131 | 0.0 | 3.0 | 0.00 | 0.12 | 0.12 | 98 | 1003.6 |
| 20260509134040 | 57 | 0.0 | 0.0 | 0.00 | 0.12 | 0.12 | 99 | 1003.6 | |
| 20260509133018 | 56 | 40 | 0.0 | 1.0 | 0.00 | 0.12 | 0.12 | 99 | 1003.5 |
| 20260509132032 | 56 | 0.0 | 0.0 | 0.00 | 0.12 | 0.12 | 99 | 1003.3 | |
| 20260509131017 | 55 | 202 | 0.0 | 3.0 | 0.00 | 0.12 | 0.12 | 99 | 1003.3 |
| 20260509130020 | 55 | 157 | 0.0 | 2.0 | 0.01 | 0.12 | 0.12 | 99 | 1003.3 |
| 20260509125023 | 55 | 0.0 | 0.0 | 0.01 | 0.12 | 0.12 | 99 | 1003.2 | |
| 20260509124026 | 55 | 0.0 | 0.0 | 0.01 | 0.12 | 0.12 | 99 | 1003.4 | |
| 20260509123050 | 55 | 0.0 | 0.0 | 0.01 | 0.12 | 0.12 | 99 | 1003.6 | |
| 20260509122033 | 55 | 0.0 | 0.0 | 0.01 | 0.12 | 0.12 | 99 | 1003.7 | |
| 20260509121039 | 55 | 0.0 | 0.0 | 0.01 | 0.12 | 0.12 | 99 | 1003.7 | |
| 20260509120021 | 55 | 0.0 | 0.0 | 0.00 | 0.10 | 0.10 | 99 | 1003.6 | |
| 20260509115024 | 54 | 0.0 | 0.0 | 0.00 | 0.10 | 0.10 | 99 | 1003.4 | |
| 20260509114047 | 54 | 0.0 | 0.0 | 0.00 | 0.10 | 0.10 | 99 | 1003.3 | |
| 20260509113032 | 54 | 0.0 | 0.0 | 0.00 | 0.10 | 0.10 | 99 | 1003.3 | |
| 20260509112015 | 54 | 0.0 | 0.0 | 0.00 | 0.10 | 0.10 | 99 | 1003.3 | |
| 20260509111039 | 54 | 0.0 | 0.0 | 0.01 | 0.10 | 0.10 | 99 | 1003.2 | |
| 20260509110041 | 54 | 0.0 | 0.0 | 0.03 | 0.10 | 0.10 | 99 | 1003.0 | |
| 20260509105024 | 54 | 0.0 | 0.0 | 0.03 | 0.10 | 0.10 | 99 | 1003.3 | |
| 20260509104027 | 54 | 0.0 | 0.0 | 0.03 | 0.10 | 0.10 | 99 | 1003.6 | |
| 20260509103044 | 54 | 0.0 | 0.0 | 0.03 | 0.09 | 0.09 | 99 | 1003.7 | |
| 20260509102015 | 54 | 0.0 | 0.0 | 0.03 | 0.09 | 0.09 | 99 | 1003.7 | |
| 20260509101040 | 54 | 0.0 | 0.0 | 0.03 | 0.09 | 0.09 | 99 | 1003.8 | |
| 20260509100016 | 54 | 0.0 | 0.0 | 0.01 | 0.07 | 0.07 | 99 | 1003.8 | |
| 20260509095025 | 54 | 0.0 | 0.0 | 0.03 | 0.07 | 0.07 | 99 | 1003.8 | |
| 20260509094028 | 54 | 0.0 | 0.0 | 0.02 | 0.06 | 0.06 | 99 | 1004.0 | |
| 20260509093032 | 54 | 0.0 | 0.0 | 0.02 | 0.06 | 0.06 | 99 | 1003.8 | |
| 20260509092016 | 54 | 0.0 | 0.0 | 0.02 | 0.06 | 0.06 | 99 | 1003.9 | |
| 20260509091020 | 54 | 0.0 | 0.0 | 0.02 | 0.06 | 0.06 | 99 | 1004.0 | |
| 20260509090023 | 54 | 0.0 | 0.0 | 0.02 | 0.06 | 0.06 | 99 | 1004.1 | |
| 20260509085026 | 54 | 0.0 | 0.0 | 0.01 | 0.04 | 0.04 | 99 | 1004.3 | |
| 20260509084110 | 54 | 0.0 | 0.0 | 0.01 | 0.04 | 0.04 | 99 | 1004.3 | |
| 20260509083032 | 54 | 0.0 | 0.0 | 0.02 | 0.03 | 0.03 | 99 | 1004.5 | |
| 20260509082017 | 54 | 0.0 | 0.0 | 0.02 | 0.03 | 0.03 | 99 | 1004.5 | |
| 20260509081020 | 54 | 0.0 | 0.0 | 0.02 | 0.03 | 0.03 | 99 | 1004.5 | |
| 20260509080024 | 54 | 0.0 | 0.0 | 0.02 | 0.03 | 0.03 | 99 | 1004.4 | |
| 20260509075108 | 54 | 0.0 | 0.0 | 0.01 | 0.03 | 0.03 | 99 | 1004.6 | |
| 20260509074051 | 54 | 0.0 | 0.0 | 0.02 | 0.03 | 0.03 | 99 | 1004.2 | |
| 20260509073033 | 54 | 0.0 | 0.0 | 0.00 | 0.01 | 0.01 | 99 | 1004.3 | |
| 20260509072038 | 54 | 0.0 | 0.0 | 0.01 | 0.01 | 0.01 | 99 | 1004.6 | |
| 20260509071021 | 54 | 0.0 | 0.0 | 0.01 | 0.01 | 0.01 | 99 | 1004.8 | |
| 20260509070024 | 54 | 0.0 | 0.0 | 0.01 | 0.01 | 0.01 | 99 | 1004.9 | |
| 20260509065041 | 54 | 0.0 | 0.0 | 0.01 | 0.01 | 0.01 | 99 | 1005.1 | |
| 20260509064018 | 54 | 0.0 | 0.0 | 0.00 | 0.00 | 0.00 | 99 | 1005.0 | |
| 20260509063015 | 54 | 0.0 | 0.0 | 0.00 | 0.00 | 0.00 | 99 | 1005.3 | |
| 20260509062019 | 54 | 196 | 0.0 | 2.0 | 0.00 | 0.00 | 0.00 | 99 | 1005.2 |
| 20260509061021 | 54 | 225 | 0.0 | 1.0 | 0.00 | 0.00 | 0.00 | 98 | 1005.1 |
| 20260509060025 | 54 | 0.0 | 0.0 | 0.00 | 0.00 | 0.00 | 97 | 1005.0 | |
| 20260509055049 | 54 | 0.0 | 0.0 | 0.00 | 0.00 | 0.00 | 98 | 1004.9 | |
| 20260509054033 | 54 | 0.0 | 0.0 | 0.00 | 0.00 | 0.00 | 97 | 1004.8 | |
| 20260509053018 | 54 | 0.0 | 0.0 | 0.00 | 0.00 | 0.00 | 97 | 1004.9 | |
| 20260509052019 | 55 | 0.0 | 0.0 | 0.00 | 0.00 | 0.00 | 97 | 1005.0 | |
| 20260509051023 | 55 | 100 | 0.0 | 2.0 | 0.00 | 0.00 | 0.00 | 97 | 1005.0 |
| 20260509050026 | 55 | 117 | 0.0 | 2.0 | 0.00 | 0.00 | 0.00 | 96 | 1005.0 |
| 20260509045049 | 55 | 146 | 0.0 | 2.0 | 0.00 | 0.00 | 0.00 | 95 | 1005.1 |
| 20260509044027 | 55 | 70 | 0.0 | 3.0 | 0.00 | 0.00 | 0.00 | 94 | 1005.3 |
| 20260509043030 | 55 | 238 | 0.0 | 2.0 | 0.00 | 0.00 | 0.00 | 93 | 1005.3 |
| 20260509042033 | 55 | 0.0 | 0.0 | 0.00 | 0.00 | 0.00 | 92 | 1005.3 | |
| 20260509041019 | 56 | 236 | 0.0 | 2.0 | 0.00 | 0.00 | 0.00 | 91 | 1005.3 |
| 20260509040026 | 56 | 143 | 0.0 | 1.0 | 0.00 | 0.00 | 0.00 | 90 | 1005.4 |
| 20260509035024 | 56 | 67 | 0.0 | 2.0 | 0.00 | 0.00 | 0.00 | 90 | 1005.4 |
| 20260509034027 | 56 | 174 | 0.0 | 2.0 | 0.00 | 0.00 | 0.00 | 89 | 1005.6 |
| 20260509033026 | 56 | 173 | 1.0 | 2.0 | 0.00 | 0.00 | 0.00 | 88 | 1005.6 |
| 20260509032037 | 56 | 229 | 1.0 | 2.0 | 0.00 | 0.00 | 0.00 | 88 | 1005.6 |
| 20260509031020 | 57 | 113 | 1.0 | 2.0 | 0.00 | 0.00 | 0.00 | 87 | 1005.7 |
| 20260509030036 | 57 | 138 | 2.0 | 3.0 | 0.00 | 0.00 | 0.00 | 86 | 1005.8 |
| 20260509025025 | 57 | 259 | 2.0 | 6.0 | 0.00 | 0.00 | 0.00 | 85 | 1005.9 |
| 20260509024049 | 57 | 172 | 2.0 | 4.0 | 0.00 | 0.00 | 0.00 | 84 | 1005.6 |
| 20260509023031 | 58 | 170 | 3.0 | 5.0 | 0.00 | 0.00 | 0.00 | 83 | 1005.7 |
| 20260509022016 | 59 | 266 | 0.0 | 2.0 | 0.00 | 0.00 | 0.00 | 79 | 1005.3 |
| 20260509021120 | 59 | 246 | 1.0 | 2.0 | 0.00 | 0.00 | 0.00 | 75 | 1005.1 |
| 20260509020023 | 59 | 0.0 | 0.0 | 0.00 | 0.00 | 0.00 | 72 | 1005.0 | |
| 20260509015026 | 59 | 0.0 | 0.0 | 0.00 | 0.00 | 0.00 | 71 | 1004.8 | |
| 20260509014049 | 60 | 0.0 | 0.0 | 0.00 | 0.00 | 0.00 | 72 | 1004.9 | |
| 20260509013032 | 60 | 133 | 1.0 | 2.0 | 0.00 | 0.00 | 0.00 | 71 | 1005.3 |
| 20260509012138 | 61 | 224 | 1.0 | 4.0 | 0.00 | 0.00 | 0.00 | 70 | 1005.1 |
| 20260509011020 | 61 | 270 | 0.0 | 2.0 | 0.00 | 0.00 | 0.00 | 70 | 1005.0 |
| 20260509010023 | 62 | 0.0 | 0.0 | 0.00 | 0.00 | 0.00 | 65 | 1004.9 | |
| 20260509005046 | 62 | 0.0 | 0.0 | 0.00 | 0.00 | 0.00 | 62 | 1004.8 | |
| 20260509004029 | 63 | 0.0 | 0.0 | 0.00 | 0.00 | 0.00 | 59 | 1004.5 | |
| 20260509003032 | 63 | 0.0 | 0.0 | 0.00 | 0.00 | 0.00 | 57 | 1004.5 | |
| 20260509002017 | 64 | 0.0 | 0.0 | 0.00 | 0.00 | 0.00 | 56 | 1004.6 | |
| 20260509001021 | 64 | 0.0 | 0.0 | 0.00 | 0.00 | 0.00 | 56 | 1004.6 | |
| 20260509000024 | 64 | 202 | 0.0 | 2.0 | 0.00 | 0.00 | 0.00 | 55 | 1004.5 |
| 20260508235106 | 65 | 0.0 | 0.0 | 0.00 | 0.00 | 0.00 | 55 | 1004.4 | |
| 20260508234018 | 65 | 0.0 | 0.0 | 0.00 | 0.00 | 0.00 | 56 | 1004.3 | |
| 20260508233015 | 65 | 0.0 | 0.0 | 0.00 | 0.00 | 0.00 | 56 | 1004.5 | |
| 20260508232018 | 65 | 0.0 | 1.0 | 0.00 | 0.00 | 0.00 | 55 | 1004.5 | |
| 20260508231042 | 65 | 202 | 0.0 | 1.0 | 0.00 | 0.00 | 0.00 | 55 | 1004.5 |
| 20260508230029 | 66 | 213 | 0.0 | 3.0 | 0.00 | 0.00 | 0.00 | 53 | 1004.5 |
| 20260508225027 | 67 | 189 | 0.0 | 1.0 | 0.00 | 0.00 | 0.00 | 53 | 1004.5 |
| 20260508224031 | 67 | 207 | 1.0 | 2.0 | 0.00 | 0.00 | 0.00 | 50 | 1004.5 |
| 20260508223016 | 68 | 172 | 0.0 | 2.0 | 0.00 | 0.00 | 0.00 | 49 | 1004.4 |
| 20260508222018 | 68 | 190 | 2.0 | 5.0 | 0.00 | 0.00 | 0.00 | 48 | 1004.4 |
| 20260508221023 | 68 | 118 | 1.0 | 2.0 | 0.00 | 0.00 | 0.00 | 48 | 1004.4 |
| 20260508220026 | 68 | 300 | 0.0 | 2.0 | 0.00 | 0.00 | 0.00 | 49 | 1004.3 |
| 20260508215028 | 68 | 157 | 0.0 | 2.0 | 0.00 | 0.00 | 0.00 | 47 | 1004.3 |
| 20260508214032 | 68 | 212 | 1.0 | 4.0 | 0.00 | 0.00 | 0.00 | 46 | 1004.4 |
| 20260508213017 | 69 | 235 | 3.0 | 5.0 | 0.00 | 0.00 | 0.00 | 46 | 1004.4 |
| 20260508212020 | 69 | 181 | 1.0 | 3.0 | 0.00 | 0.00 | 0.00 | 46 | 1004.5 |
| 20260508211043 | 70 | 152 | 2.0 | 5.0 | 0.00 | 0.00 | 0.00 | 44 | 1004.7 |
| 20260508210026 | 71 | 236 | 2.0 | 4.0 | 0.00 | 0.00 | 0.00 | 45 | 1004.8 |
| 20260508205029 | 68 | 196 | 1.0 | 3.0 | 0.00 | 0.00 | 0.00 | 47 | 1005.3 |
| 20260508204107 | 68 | 130 | 2.0 | 4.0 | 0.00 | 0.00 | 0.00 | 46 | 1005.3 |
| 20260508203017 | 69 | 205 | 4.0 | 8.0 | 0.00 | 0.00 | 0.00 | 45 | 1005.6 |
| 20260508202020 | 69 | 190 | 1.0 | 3.0 | 0.00 | 0.00 | 0.00 | 46 | 1005.6 |
| 20260508201018 | 69 | 191 | 3.0 | 6.0 | 0.00 | 0.00 | 0.00 | 45 | 1005.7 |
| 20260508200027 | 70 | 298 | 1.0 | 4.0 | 0.00 | 0.00 | 0.00 | 46 | 1005.7 |
| 20260508195031 | 69 | 131 | 2.0 | 7.0 | 0.00 | 0.00 | 0.00 | 45 | 1005.8 |
| 20260508194054 | 68 | 249 | 2.0 | 5.0 | 0.00 | 0.00 | 0.00 | 43 | 1005.9 |
| 20260508193039 | 69 | 225 | 4.0 | 6.0 | 0.00 | 0.00 | 0.00 | 42 | 1005.9 |
| 20260508192021 | 70 | 146 | 2.0 | 4.0 | 0.00 | 0.00 | 0.00 | 44 | 1006.2 |
| 20260508191046 | 72 | 152 | 3.0 | 4.0 | 0.00 | 0.00 | 0.00 | 43 | 1006.2 |
| 20260508190028 | 73 | 206 | 3.0 | 6.0 | 0.00 | 0.00 | 0.00 | 42 | 1006.3 |